GW6356 Weather Reports


time (UTC)temp
C
wind
direction
speed
KPH
gust
KPH
rain 1hr
cm
rain 24hr
cm
rain mn
cm
humidity
%
barometer
mb
20260506171522 21 139 4.8 9.7 0.00 0.00 0.00 34 1017.6
20260506170025 21 198 1.6 4.8 0.00 0.00 0.00 35 1017.5
20260506164003 21 226 1.6 6.4 0.00 0.00 0.00 38 1017.5
20260506163010 20 140 1.6 6.4 0.00 0.00 0.00 39 1017.4
20260506161004 20 162 0.0 4.8 0.00 0.00 0.00 43 1017.4
20260506155009 18 181 0.0 4.8 0.00 0.00 0.00 45 1017.3
20260506153511 19 307 3.2 4.8 0.00 0.00 0.00 45 1017.3
20260506152004 18 258 3.2 6.4 0.00 0.00 0.00 45 1017.4
20260506151513 18 167 1.6 4.8 0.00 0.00 0.00 47 1017.3
20260506151005 17 212 1.6 6.4 0.00 0.00 0.00 47 1017.4
20260506150017 17 276 3.2 6.4 0.00 0.00 0.00 49 1017.4
20260506145505 17 207 1.6 6.4 0.00 0.00 0.00 49 1017.3
20260506145007 17 230 1.6 6.4 0.00 0.00 0.00 49 1017.2
20260506144007 17 235 1.6 4.8 0.00 0.00 0.00 49 1017.3
20260506142510 17 236 1.6 4.8 0.00 0.00 0.00 51 1017.3
20260506141011 16 250 3.2 4.8 0.00 0.00 0.00 53 1017.3
20260506140510 16 240 1.6 4.8 0.00 0.00 0.00 53 1017.3
20260506135506 15 209 1.6 4.8 0.00 0.00 0.00 54 1017.1
20260506135010 15 241 3.2 4.8 0.00 0.00 0.00 55 1017.1
20260506134009 15 226 1.6 3.2 0.00 0.00 0.00 58 1017.1
20260506133507 15 221 0.0 3.2 0.00 0.00 0.00 60 1017.1
20260506133023 14 221 1.6 3.2 0.00 0.00 0.00 61 1017.1
20260506132509 13 195 0.0 0.0 0.00 0.00 0.00 64 1017.1
20260506132010 13 195 0.0 1.6 0.00 0.00 0.00 66 1017.0
20260506131508 12 195 0.0 1.6 0.00 0.00 0.00 68 1016.9
20260506131004 12 195 0.0 1.6 0.00 0.00 0.00 70 1016.8
20260506130504 11 188 0.0 1.6 0.00 0.00 0.00 71 1016.8
20260506125505 10 188 0.0 1.6 0.00 0.00 0.00 75 1016.8
20260506125003 10 188 0.0 0.0 0.00 0.00 0.00 75 1016.8
20260506124517 10 188 0.0 0.0 0.00 0.00 0.00 74 1016.8
20260506124006 10 188 0.0 1.6 0.00 0.00 0.00 74 1016.7
20260506123507 10 188 0.0 1.6 0.00 0.00 0.00 75 1016.6
20260506123021 10 188 0.0 0.0 0.00 0.00 0.00 76 1016.6
20260506122509 10 188 0.0 0.0 0.00 0.00 0.00 75 1016.5
20260506122008 10 188 0.0 0.0 0.00 0.00 0.00 73 1016.5
20260506121527 11 188 0.0 0.0 0.00 0.00 0.00 71 1016.5
20260506121010 11 188 0.0 1.6 0.00 0.00 0.00 71 1016.4
20260506120511 11 188 0.0 1.6 0.00 0.03 0.00 71 1016.4
20260506120030 11 188 0.0 0.0 0.00 0.03 0.00 71 1016.4
20260506115507 11 188 0.0 0.0 0.00 0.03 0.00 70 1016.3
20260506115008 11 188 0.0 0.0 0.00 0.03 0.00 69 1016.2
20260506114007 11 188 0.0 1.6 0.00 0.03 0.00 68 1016.2
20260506113505 11 188 0.0 0.0 0.00 0.03 0.00 69 1016.2
20260506112506 11 188 0.0 1.6 0.00 0.03 0.00 68 1016.0
20260506112008 11 179 0.0 1.6 0.00 0.03 0.00 68 1016.0
20260506111520 11 179 0.0 1.6 0.00 0.03 0.00 68 1015.9
20260506111008 11 188 0.0 1.6 0.00 0.03 0.00 69 1015.8
20260506110508 11 188 0.0 1.6 0.00 0.03 0.00 69 1015.8
20260506110024 11 213 0.0 1.6 0.00 0.03 0.00 69 1015.8
20260506105507 11 213 0.0 1.6 0.00 0.05 0.00 69 1015.7
20260506105012 11 213 0.0 1.6 0.00 0.05 0.00 69 1015.7
20260506104527 11 213 0.0 0.0 0.00 0.05 0.00 67 1015.6
20260506104010 11 213 0.0 0.0 0.00 0.05 0.00 67 1015.6
20260506103505 11 214 0.0 1.6 0.00 0.05 0.00 65 1015.5
20260506103021 12 213 0.0 1.6 0.00 0.05 0.00 64 1015.5
20260506102507 12 214 0.0 0.0 0.00 0.05 0.00 63 1015.5
20260506102006 12 214 0.0 1.6 0.00 0.05 0.00 61 1015.5
20260506100023 12 151 0.0 0.0 0.00 0.08 0.00 59 1015.3
20260506095508 12 151 0.0 0.0 0.00 0.08 0.00 59 1015.3
20260506095008 13 151 0.0 0.0 0.00 0.08 0.00 57 1015.3
20260506094528 13 151 0.0 0.0 0.00 0.08 0.00 56 1015.2
20260506094007 13 151 0.0 0.0 0.00 0.08 0.00 55 1015.1
20260506093511 13 151 0.0 0.0 0.00 0.08 0.00 54 1015.2
20260506093033 13 151 0.0 0.0 0.00 0.10 0.00 53 1015.2
20260506092509 13 151 0.0 1.6 0.00 0.13 0.00 52 1015.2
20260506092004 13 151 0.0 1.6 0.00 0.13 0.00 52 1015.2
20260506091524 13 151 0.0 1.6 0.00 0.15 0.00 52 1015.2
20260506091006 13 151 0.0 0.0 0.00 0.15 0.00 52 1015.2
20260506090507 13 151 0.0 1.6 0.00 0.15 0.00 51 1015.2
20260506090027 14 151 0.0 1.6 0.00 0.15 0.00 51 1015.2
20260506085505 14 151 0.0 1.6 0.00 0.15 0.00 51 1015.2
20260506085009 14 151 0.0 1.6 0.00 0.18 0.00 50 1015.3
20260506084533 14 151 0.0 0.0 0.00 0.18 0.00 51 1015.3
20260506084008 14 151 0.0 0.0 0.00 0.18 0.00 51 1015.3
20260506083511 14 151 0.0 0.0 0.00 0.18 0.00 50 1015.3
20260506083027 15 151 0.0 0.0 0.00 0.18 0.00 50 1015.3
20260506082506 15 151 0.0 0.0 0.00 0.18 0.00 48 1015.3
20260506082012 15 151 0.0 1.6 0.00 0.20 0.00 48 1015.4
20260506081524 15 151 0.0 1.6 0.00 0.20 0.00 47 1015.3
20260506081012 15 151 0.0 1.6 0.00 0.20 0.00 48 1015.4
20260506080511 15 151 0.0 1.6 0.00 0.20 0.00 48 1015.4
20260506073512 16 161 0.0 3.2 0.00 0.28 0.00 50 1015.4
20260506073025 16 159 0.0 1.6 0.00 0.28 0.00 52 1015.4
20260506072502 16 160 0.0 1.6 0.00 0.28 0.00 54 1015.4
20260506072003 16 145 0.0 1.6 0.00 0.30 0.00 56 1015.4
20260506071515 16 145 0.0 3.2 0.00 0.30 0.00 55 1015.3
20260506071003 16 145 0.0 4.8 0.00 0.30 0.00 54 1015.3
20260506070503 16 157 1.6 4.8 0.00 0.30 0.00 54 1015.3
20260506062502 17 140 1.6 6.4 0.00 0.38 0.30 51 1015.1
20260506062004 17 133 1.6 6.4 0.00 0.38 0.30 50 1015.1
20260506061519 17 162 1.6 8.0 0.00 0.41 0.30 50 1015.1
20260506061004 17 143 4.8 9.7 0.00 0.43 0.30 49 1015.1
20260506060505 17 149 3.2 9.7 0.00 0.46 0.30 46 1015.2
20260506051008 18 143 3.2 9.7 0.00 0.56 0.30 47 1014.7
20260506050505 18 142 1.6 12.9 0.00 0.56 0.30 47 1014.6
20260506045004 18 136 1.6 8.0 0.00 0.58 0.30 47 1014.4
20260506044512 18 158 3.2 9.7 0.00 0.58 0.30 46 1014.4
20260506044004 19 139 1.6 16.1 0.00 0.61 0.30 45 1014.4
20260506043505 19 126 6.4 16.1 0.00 0.61 0.30 45 1014.3
20260506043023 19 126 4.8 12.9 0.00 0.61 0.30 45 1014.3
20260506042506 19 113 6.4 14.5 0.00 0.61 0.30 45 1014.2
20260506042007 19 84 3.2 14.5 0.00 0.61 0.30 45 1014.2
20260506041517 19 139 3.2 9.7 0.00 0.61 0.30 45 1014.1
20260506041006 19 128 3.2 12.9 0.00 0.61 0.30 43 1014.0
20260506040507 19 80 4.8 12.9 0.00 0.61 0.30 43 1013.9
20260506040029 19 136 3.2 11.3 0.00 0.64 0.30 43 1013.8
20260506035508 19 139 0.0 4.8 0.00 0.64 0.30 42 1013.7
20260506035010 19 136 1.6 6.4 0.00 0.64 0.30 41 1013.6
20260506034506 19 129 1.6 6.4 0.00 0.64 0.30 40 1013.5
20260506034002 19 141 1.6 6.4 0.00 0.64 0.30 39 1013.5
20260506033502 19 120 1.6 8.0 0.00 0.64 0.30 39 1013.4
20260506033008 19 141 1.6 8.0 0.00 0.64 0.30 37 1013.4
20260506032503 19 121 0.0 4.8 0.00 0.64 0.30 37 1013.2
20260506032007 19 145 0.0 3.2 0.00 0.64 0.30 37 1013.1
20260506031517 20 145 0.0 3.2 0.00 0.64 0.30 37 1013.0
20260506031007 20 146 0.0 4.8 0.00 0.64 0.30 36 1013.0
20260506030506 20 150 0.0 4.8 0.00 0.64 0.30 36 1012.9
20260506030022 20 136 0.0 9.7 0.00 0.64 0.30 35 1012.9
20260506025509 20 136 3.2 9.7 0.00 0.64 0.30 34 1012.9
20260506025007 20 151 0.0 4.8 0.00 0.64 0.30 33 1012.6
20260506024527 20 146 0.0 4.8 0.00 0.64 0.30 33 1012.5
20260506024014 20 146 0.0 6.4 0.00 0.64 0.30 32 1012.5
20260506023510 20 141 1.6 6.4 0.00 0.64 0.30 32 1012.4
20260506023015 20 125 3.2 11.3 0.00 0.64 0.30 31 1012.4
20260506022003 21 149 3.2 9.7 0.00 0.64 0.30 30 1012.1
20260506021512 21 149 3.2 9.7 0.00 0.64 0.30 30 1012.0
20260506021011 21 137 3.2 16.1 0.00 0.64 0.30 29 1011.9
20260506020510 21 131 3.2 16.1 0.00 0.64 0.30 29 1011.8
20260506020017 21 74 3.2 9.7 0.00 0.66 0.30 29 1011.7
20260506015508 21 160 1.6 9.7 0.00 0.66 0.30 30 1011.8
20260506014520 21 133 4.8 12.9 0.00 0.66 0.30 30 1011.7
20260506014006 21 82 3.2 19.3 0.00 0.66 0.30 30 1011.7
20260506013024 22 126 4.8 12.9 0.00 0.66 0.30 31 1011.6
20260506012008 22 143 1.6 9.7 0.00 0.66 0.30 31 1011.5
20260506011528 22 141 3.2 14.5 0.00 0.66 0.30 31 1011.5
20260506011005 22 22 3.2 16.1 0.00 0.66 0.30 30 1011.4
20260506010012 23 75 3.2 14.5 0.00 0.66 0.30 29 1011.1
20260506005502 23 119 4.8 17.7 0.00 0.66 0.30 28 1011.1
20260506005002 23 101 8.0 17.7 0.00 0.66 0.30 27 1011.0
20260506004513 24 139 4.8 14.5 0.00 0.66 0.30 27 1011.0
20260506004003 24 125 1.6 14.5 0.00 0.66 0.30 26 1010.9
20260506003503 24 102 4.8 16.1 0.00 0.66 0.30 25 1010.9
20260506003006 24 146 4.8 16.1 0.00 0.66 0.30 25 1010.9
20260506002503 25 111 3.2 16.1 0.00 0.66 0.30 25 1010.9
20260506001517 24 263 4.8 17.7 0.00 0.66 0.30 25 1010.8
20260506000016 25 161 3.2 14.5 0.00 0.66 0.30 25 1010.6
20260505234522 25 79 6.4 16.1 0.00 0.66 0.30 24 1010.5
20260505233504 25 108 3.2 16.1 0.00 0.66 0.30 24 1010.5
20260505233025 25 144 4.8 11.3 0.00 0.66 0.30 22 1010.5
20260505232505 26 92 4.8 11.3 0.00 0.66 0.30 23 1010.5
20260505232003 26 87 4.8 16.1 0.00 0.66 0.30 24 1010.4
20260505231506 26 151 4.8 16.1 0.00 0.66 0.30 24 1010.6
20260505231004 26 133 3.2 9.7 0.00 0.66 0.30 23 1010.6
20260505230504 26 130 4.8 9.7 0.00 0.66 0.30 23 1010.5
20260505230009 26 100 3.2 19.3 0.00 0.66 0.30 25 1010.6
20260505225507 26 294 4.8 19.3 0.00 0.66 0.30 26 1010.6
20260505223505 26 3 6.4 17.7 0.00 0.66 0.30 26 1010.9
20260505223020 25 127 6.4 17.7 0.00 0.66 0.30 26 1011.0
20260505222505 26 146 1.6 12.9 0.00 0.66 0.30 27 1011.0
20260505222005 26 187 3.2 11.3 0.00 0.66 0.30 26 1011.0
20260505221504 26 122 3.2 19.3 0.00 0.66 0.30 26 1011.1
20260505221004 26 358 4.8 19.3 0.00 0.66 0.30 28 1011.1
20260505220504 26 148 3.2 16.1 0.00 0.66 0.30 26 1011.1
20260505220017 26 212 8.0 17.7 0.00 0.66 0.30 26 1011.1
20260505215505 26 170 3.2 17.7 0.00 0.66 0.30 27 1011.3
20260505214517 26 4 4.8 11.3 0.00 0.66 0.30 27 1011.4
20260505214007 26 13 3.2 11.3 0.00 0.66 0.30 27 1011.5
20260505213503 26 122 4.8 11.3 0.00 0.66 0.30 27 1011.6
20260505213021 26 132 4.8 9.7 0.00 0.66 0.30 27 1011.7
20260505212504 26 132 3.2 9.7 0.00 0.66 0.30 25 1011.6
20260505212007 26 188 4.8 11.3 0.00 0.66 0.30 24 1011.8
20260505211007 26 191 3.2 16.1 0.00 0.66 0.30 26 1011.8
20260505210511 26 130 4.8 22.5 0.00 0.66 0.30 26 1011.8
20260505210006 26 62 6.4 22.5 0.00 0.66 0.30 26 1011.9
20260505205509 26 127 4.8 25.7 0.00 0.66 0.30 25 1011.9
20260505205004 25 248 4.8 25.7 0.00 0.66 0.30 25 1011.9
20260505204510 25 214 6.4 17.7 0.00 0.66 0.30 26 1011.9
20260505204004 26 89 6.4 27.4 0.00 0.66 0.30 27 1011.9
20260505203504 26 120 9.7 27.4 0.00 0.66 0.30 26 1011.8
20260505203018 26 159 6.4 20.9 0.00 0.66 0.30 25 1011.9
20260505202508 26 243 4.8 22.5 0.00 0.66 0.30 28 1011.9
20260505202004 26 18 6.4 22.5 0.00 0.66 0.30 27 1011.9
20260505201522 26 152 3.2 22.5 0.00 0.66 0.30 31 1012.0
20260505201007 25 134 6.4 22.5 0.00 0.66 0.30 32 1012.1
20260505200509 25 108 6.4 17.7 0.00 0.66 0.30 31 1012.2
20260505195509 25 75 3.2 14.5 0.00 0.66 0.30 35 1012.3
20260505194520 24 24 4.8 14.5 0.00 0.66 0.30 36 1012.5
20260505194003 24 130 4.8 12.9 0.00 0.66 0.30 37 1012.5
20260505193504 23 129 3.2 9.7 0.00 0.66 0.30 43 1012.5
20260505192505 21 135 1.6 6.4 0.00 0.66 0.30 49 1012.6
20260505192006 21 150 1.6 6.4 0.00 0.66 0.30 51 1012.6
20260505191523 21 199 3.2 6.4 0.00 0.66 0.30 50 1012.6
20260505191004 21 161 3.2 6.4 0.00 0.66 0.30 50 1012.8
20260505190506 21 150 3.2 8.0 0.00 0.66 0.30 50 1012.8
20260505190025 21 203 1.6 11.3 0.00 0.66 0.30 51 1012.8
20260505185509 21 252 4.8 11.3 0.00 0.66 0.30 51 1012.8
20260505185007 21 226 6.4 9.7 0.00 0.66 0.30 50 1013.0
20260505184527 21 195 4.8 11.3 0.00 0.66 0.30 50 1013.0
20260505184006 21 188 4.8 11.3 0.00 0.66 0.30 51 1013.1
20260505183508 21 155 4.8 11.3 0.00 0.66 0.30 51 1013.2
20260505183033 21 224 4.8 11.3 0.00 0.66 0.30 51 1013.3
20260505182503 21 171 1.6 6.4 0.00 0.66 0.30 53 1013.4
20260505182004 21 146 1.6 4.8 0.00 0.66 0.30 52 1013.5
20260505181508 21 182 1.6 3.2 0.00 0.66 0.30 52 1013.6
20260505181005 20 84 1.6 3.2 0.00 0.66 0.30 53 1013.6
20260505180504 20 110 0.0 9.7 0.00 0.66 0.30 55 1013.6
20260505180021 20 112 1.6 9.7 0.00 0.66 0.30 54 1013.7
20260505175504 20 137 0.0 6.4 0.00 0.66 0.30 56 1013.7
20260505175004 20 135 1.6 6.4 0.00 0.66 0.30 55 1013.7
20260505174523 20 131 1.6 9.7 0.00 0.66 0.30 56 1013.7
20260505174009 20 155 3.2 9.7 0.00 0.66 0.30 53 1013.8
20260505173506 20 164 1.6 3.2 0.00 0.66 0.30 54 1013.8
20260505173022 20 199 1.6 8.0 0.00 0.66 0.30 54 1013.8
20260505172512 20 144 1.6 8.0 0.00 0.66 0.30 53 1013.8
20260505172007 20 131 0.0 3.2 0.00 0.66 0.30 59 1013.8